When you browse on this site, cookies collect data to enhance your experience and personalize the content and advertising you see.
Visit our Privacy Policy to learn more. By continuing to use the site, you agree to this use of cookies and data.
  • In Latvia
  • List of Countries
  • For 7 days
  • Water Temperature
  • Weather Map
  • Weather Widgets
  • user-avatar
    Login

    Hourly Weather Hubari

    Today, 1 April, Wednesday

    Time Temperature Precipitation Wind Pressure Humidity
    00:00 -3°C° 0 mm 2 mps 751 mmHg 61%
    01:00 -3°C° 0 mm 2 mps 751 mmHg 63%
    02:00 -3°C° 0 mm 2 mps 751 mmHg 59%
    03:00 -3°C° 0 mm 2 mps 750 mmHg 59%
    04:00 -4°C° 0 mm 3 mps 750 mmHg 58%
    05:00 -2°C° 0 mm 3 mps 750 mmHg 57%
    06:00 -3°C° 0 mm 4 mps 749 mmHg 56%
    07:00 -2°C° 0 mm 4 mps 749 mmHg 55%
    08:00 -1°C° 0 mm 5 mps 749 mmHg 54%
    09:00 0°C° 0 mm 5 mps 749 mmHg 50%
    10:00 +1°C° 0 mm 6 mps 748 mmHg 46%
    11:00 +2°C° 0 mm 7 mps 748 mmHg 42%
    12:00 +2°C° 0 mm 7 mps 747 mmHg 43%
    13:00 +3°C° 0 mm 7 mps 747 mmHg 44%
    14:00 +3°C° 0 mm 7 mps 747 mmHg 45%
    15:00 +3°C° 0 mm 6 mps 747 mmHg 45%
    16:00 +3°C° 0 mm 6 mps 746 mmHg 46%
    17:00 +2°C° 0 mm 5 mps 746 mmHg 46%
    18:00 +1°C° 0 mm 5 mps 746 mmHg 50%
    19:00 0°C° 0 mm 4 mps 746 mmHg 54%
    20:00 0°C° 0 mm 3 mps 746 mmHg 58%
    21:00 -1°C° 0 mm 4 mps 746 mmHg 60%
    22:00 -1°C° 0 mm 4 mps 745 mmHg 61%
    23:00 -2°C° 0 mm 4 mps 745 mmHg 63%

    Tomorrow, 2 April, Thursday

    Time Temperature Precipitation Wind Pressure Humidity
    00:00 -2°C° 0 mm 4 mps 745 mmHg 64%
    01:00 -2°C° 0 mm 4 mps 745 mmHg 64%
    02:00 -2°C° 0 mm 4 mps 745 mmHg 65%
    03:00 -2°C° 0 mm 4 mps 745 mmHg 67%
    04:00 -2°C° 0 mm 4 mps 745 mmHg 68%
    05:00 -2°C° 0 mm 4 mps 744 mmHg 69%
    06:00 -1°C° 0 mm 5 mps 744 mmHg 66%
    07:00 0°C° 0 mm 5 mps 744 mmHg 63%
    08:00 +1°C° 0 mm 5 mps 744 mmHg 59%
    09:00 +2°C° 0 mm 6 mps 744 mmHg 56%
    10:00 +3°C° 0 mm 6 mps 744 mmHg 52%
    11:00 +4°C° 0 mm 6 mps 743 mmHg 48%
    12:00 +5°C° 0 mm 6 mps 743 mmHg 47%
    13:00 +7°C° 0 mm 6 mps 744 mmHg 45%
    14:00 +7°C° 0 mm 6 mps 744 mmHg 44%
    15:00 +7°C° 0 mm 6 mps 743 mmHg 46%
    16:00 +7°C° 0 mm 5 mps 743 mmHg 48%
    17:00 +7°C° 0 mm 5 mps 743 mmHg 49%
    18:00 +6°C° 0 mm 4 mps 743 mmHg 56%
    19:00 +4°C° 0 mm 3 mps 743 mmHg 62%
    20:00 +4°C° 0 mm 2 mps 743 mmHg 68%
    21:00 +4°C° 0 mm 2 mps 743 mmHg 71%
    22:00 +2°C° 0 mm 3 mps 743 mmHg 73%
    23:00 +2°C° 0 mm 3 mps 743 mmHg 76%

    Day after tomorrow, 3 April, Friday

    Time Temperature Precipitation Wind Pressure Humidity
    00:00 +2°C° 0 mm 3 mps 743 mmHg 76%
    01:00 +1°C° 0 mm 3 mps 743 mmHg 76%
    02:00 +1°C° 0 mm 3 mps 743 mmHg 76%
    03:00 +1°C° 0 mm 3 mps 743 mmHg 76%
    04:00 0°C° 0 mm 4 mps 743 mmHg 76%
    05:00 0°C° 0 mm 4 mps 743 mmHg 75%
    06:00 +1°C° 0 mm 5 mps 743 mmHg 69%
    07:00 +2°C° 0 mm 5 mps 743 mmHg 62%
    08:00 +4°C° 0 mm 6 mps 743 mmHg 56%
    09:00 +5°C° 0 mm 6 mps 743 mmHg 50%
    10:00 +8°C° 0 mm 7 mps 743 mmHg 43%
    11:00 +10°C° 0 mm 7 mps 742 mmHg 37%
    12:00 +10°C° 0 mm 7 mps 742 mmHg 36%
    13:00 +11°C° 0 mm 8 mps 742 mmHg 35%
    14:00 +11°C° 0 mm 8 mps 742 mmHg 34%
    15:00 +11°C° 0 mm 7 mps 742 mmHg 37%
    16:00 +11°C° 0 mm 6 mps 742 mmHg 39%
    17:00 +10°C° 0 mm 5 mps 742 mmHg 42%
    18:00 +10°C° 0 mm 4 mps 743 mmHg 47%
    19:00 +8°C° 0 mm 4 mps 743 mmHg 52%
    20:00 +7°C° 0 mm 3 mps 743 mmHg 58%
    21:00 +7°C° 0 mm 3 mps 744 mmHg 62%
    22:00 +5°C° 0 mm 3 mps 744 mmHg 67%
    23:00 +4°C° 0 mm 3 mps 745 mmHg 71%

    4 April, Saturday

    Time Temperature Precipitation Wind Pressure Humidity
    00:00 +4°C° 0 mm 3 mps 745 mmHg 75%
    01:00 +3°C° 0 mm 3 mps 746 mmHg 78%
    02:00 +4°C° 0 mm 2 mps 746 mmHg 82%
    03:00 +2°C° 0 mm 3 mps 746 mmHg 84%
    04:00 +2°C° 0 mm 3 mps 747 mmHg 87%
    05:00 +2°C° 0 mm 3 mps 747 mmHg 89%
    06:00 +2°C° 0 mm 3 mps 748 mmHg 83%
    07:00 +3°C° 0 mm 4 mps 748 mmHg 78%
    08:00 +4°C° 0 mm 4 mps 749 mmHg 73%
    09:00 +5°C° 0 mm 4 mps 749 mmHg 65%
    10:00 +7°C° 0 mm 5 mps 750 mmHg 56%
    11:00 +8°C° 0 mm 5 mps 750 mmHg 48%
    12:00 +8°C° 0 mm 5 mps 750 mmHg 42%
    13:00 +9°C° 0 mm 5 mps 751 mmHg 36%
    14:00 +9°C° 0 mm 5 mps 751 mmHg 30%
    15:00 +9°C° 0 mm 5 mps 751 mmHg 31%
    16:00 +8°C° 0 mm 4 mps 751 mmHg 31%
    17:00 +8°C° 0 mm 4 mps 751 mmHg 32%
    18:00 +8°C° 0 mm 3 mps 752 mmHg 37%
    19:00 +5°C° 0 mm 3 mps 753 mmHg 42%
    20:00 +5°C° 0 mm 2 mps 753 mmHg 47%
    21:00 +4°C° 0 mm 2 mps 754 mmHg 49%
    22:00 +4°C° 0 mm 2 mps 754 mmHg 51%
    23:00 +3°C° 0 mm 2 mps 755 mmHg 54%

    5 April, Sunday

    Time Temperature Precipitation Wind Pressure Humidity
    00:00 +3°C° 0 mm 2 mps 755 mmHg 56%
    01:00 +2°C° 0 mm 3 mps 755 mmHg 58%
    02:00 +1°C° 0 mm 3 mps 756 mmHg 61%
    03:00 +1°C° 0 mm 3 mps 756 mmHg 64%
    04:00 0°C° 0 mm 3 mps 756 mmHg 67%
    05:00 -1°C° 0 mm 4 mps 757 mmHg 70%
    06:00 -1°C° 0 mm 4 mps 758 mmHg 67%
    07:00 0°C° 0 mm 5 mps 758 mmHg 63%
    08:00 -1°C° 0 mm 6 mps 759 mmHg 60%
    09:00 +1°C° 0 mm 6 mps 760 mmHg 50%
    10:00 +2°C° 0 mm 6 mps 760 mmHg 40%
    11:00 +4°C° 0 mm 6 mps 761 mmHg 30%
    12:00 +4°C° 0 mm 6 mps 761 mmHg 30%
    13:00 +5°C° 0 mm 6 mps 761 mmHg 29%
    14:00 +5°C° 0 mm 6 mps 761 mmHg 28%
    15:00 +5°C° 0 mm 6 mps 761 mmHg 30%
    16:00 +6°C° 0 mm 5 mps 761 mmHg 31%
    17:00 +5°C° 0 mm 5 mps 761 mmHg 32%
    18:00 +4°C° 0 mm 4 mps 762 mmHg 37%
    19:00 +3°C° 0 mm 3 mps 762 mmHg 42%
    20:00 +3°C° 0 mm 2 mps 763 mmHg 47%
    21:00 +2°C° 0 mm 2 mps 763 mmHg 49%
    22:00 +2°C° 0 mm 2 mps 764 mmHg 52%
    23:00 +1°C° 0 mm 2 mps 764 mmHg 54%

    6 April, Monday

    Time Temperature Precipitation Wind Pressure Humidity
    00:00 -1°C° 0 mm 2 mps 764 mmHg 56%
    01:00 -1°C° 0 mm 2 mps 764 mmHg 59%
    02:00 -2°C° 0 mm 2 mps 765 mmHg 61%
    03:00 -2°C° 0 mm 2 mps 765 mmHg 60%
    04:00 -2°C° 0 mm 2 mps 765 mmHg 59%
    05:00 -2°C° 0 mm 2 mps 766 mmHg 58%
    06:00 -1°C° 0 mm 2 mps 766 mmHg 52%
    07:00 +1°C° 0 mm 2 mps 766 mmHg 46%
    08:00 +3°C° 0 mm 2 mps 767 mmHg 40%
    09:00 +4°C° 0 mm 2 mps 767 mmHg 36%
    10:00 +5°C° 0 mm 2 mps 767 mmHg 32%
    11:00 +6°C° 0 mm 2 mps 767 mmHg 27%
    12:00 +7°C° 0 mm 2 mps 767 mmHg 27%
    13:00 +8°C° 0 mm 2 mps 767 mmHg 26%
    14:00 +8°C° 0 mm 2 mps 766 mmHg 25%
    15:00 +8°C° 0 mm 2 mps 766 mmHg 26%
    16:00 +9°C° 0 mm 1 mps 766 mmHg 27%
    17:00 +9°C° 0 mm 1 mps 766 mmHg 28%
    18:00 +8°C° 0 mm 1 mps 766 mmHg 33%
    19:00 +6°C° 0 mm 1 mps 766 mmHg 37%
    20:00 +5°C° 0 mm 1 mps 766 mmHg 41%
    21:00 +4°C° 0 mm 1 mps 766 mmHg 43%
    22:00 +4°C° 0 mm 1 mps 766 mmHg 45%
    23:00 +3°C° 0 mm 1 mps 766 mmHg 46%
    Show more